Regional Weather Roundup
Issued by NWS Northern Indiana

Home | Current Version | Previous Version | Text Only | Print | Product List | Glossary On
Versions: 1 2 3 4 5 6 7 8 9 10 11 12 13 14 15 16 17 18 19 20 21 22 23 24 25 26 27 28 29 30 31 32 33 34 35 36 37 38 39 40 41 42 43 44 45 46 47 48 49 50
000
ASUS43 KIWX 010310
RWRIWX

KIWX WEATHER ROUNDUP
NATIONAL WEATHER SERVICE NORTHERN INDIANA
1000 PM EST SAT FEB 28 2015

NOTE: "FAIR" INDICATES FEW OR NO CLOUDS BELOW 12,000 FEET WITH NO
SIGNIFICANT WEATHER AND/OR OBSTRUCTIONS TO VISIBILITY.

* THESE STATIONS ARE NOT UNDER NWS QUALITY CONTROL. THEY ALSO MAY NOT
  REPORT WEATHER SUCH AS PRECIPITATION OR FOG.

INZ001>027-010400-
NORTHERN INDIANA

CITY           SKY/WX    TMP DP  RH WIND       PRES   REMARKS
GARY*          LGT SNOW  20  13  73 SE5       30.54S WCI  14
VALPARAISO     CLOUDY    18  13  80 SE7       30.52F WCI   9
MICHIGAN CITY* LGT SNOW  19  12  73 SE3       30.54S
LAPORTE*       LGT SNOW  19  15  82 SE7       30.53S WCI  10
KNOX*            N/A     19   9  63 SE7       30.53S WCI  10
SOUTH BEND     LGT SNOW  18  12  77 SE10      30.53F WCI   6
GOSHEN         LGT SNOW  16  10  77 SE8       30.53F WCI   5
MONTICELLO*    LGT SNOW  19  17  93 SE3       30.52F
LOGANSPORT*    LGT SNOW  19  18  93 E8        30.54F WCI   9
ROCHESTER*     LGT SNOW  21  18  86 SE6       30.54S WCI  14
WARSAW*        LGT SNOW  18  14  86 SE3       30.54R
ANGOLA*        CLOUDY    14   7  73 SE6       30.53S WCI   5
FORT WAYNE     LGT SNOW  16  12  84 E6        30.56S VSB 1   WCI   7
HUNTINGTON*    LGT SNOW  17  12  79 SE5       30.54F WCI  10
PERU/GRISSOM   LGT SNOW  18  15  89 E8        30.52F FOG     WCI   8
MARION*        LGT SNOW  18  14  86 E7        30.53F WCI   8

$$
INZ028>050-010400-
CENTRAL INDIANA

CITY           SKY/WX    TMP DP  RH WIND       PRES   REMARKS
LAFAYETTE      LGT SNOW  20  18  92 E5        30.52F FOG     WCI  13
KOKOMO*          N/A     18  14  86 SE9       30.53S WCI   6
MUNCIE*        LGT SNOW  19  15  84 E5        30.53S VSB 3/4 WCI  12
INDIANAPOLIS   SNOW      21  18  88 E7        30.51F VSB 1/2 WCI  12

$$
MIZ043>046-050>051-056>058-064>065-071>073-077>080-010400-
SOUTHWEST LOWER MICHIGAN

CITY           SKY/WX    TMP DP  RH WIND       PRES   REMARKS
BATTLE CREEK   CLOUDY    17   2  51 S9        30.53F WCI   6
BENTON HARBOR  LGT SNOW  17  10  74 SE7       30.53F WCI   8
COLDWATER*     CLOUDY    16   3  56 SE5       30.53F WCI   8
HILLSDALE*     CLOUDY    15   2  55 S5        30.52S WCI   8
HOLLAND        CLOUDY    15   4  61 SE3       30.54F
GRAND RAPIDS   CLOUDY    16   3  56 S6        30.53F WCI   7
KALAMAZOO      CLOUDY    17   3  54 S6        30.52F WCI   9
STURGIS*       LGT SNOW  16   7  67 SE7       30.52F WCI   6
THREE RIVERS*  CLOUDY    17   5  57 S5        30.54F WCI  10

$$
OHZ001>008-015>018-024>025-010400-
NORTHWEST OHIO

CITY           SKY/WX    TMP DP  RH WIND       PRES   REMARKS
WAUSEON*       CLOUDY    18   5  57 SE3       30.57S
DEFIANCE       LGT SNOW  17   8  67 E5        30.57F WCI  10
FINDLAY        CLOUDY    20   3  48 E8        30.54S WCI  10
TOLEDO EXPRESS CLOUDY    16   5  62 E5        30.58S WCI   9
TOLEDO METCALF CLOUDY    16   6  65 E6        30.59F WCI   7
LIMA           LGT SNOW  20   8  60 E3        30.53S

$$
AND FOR LAKE MICHIGAN COASTAL AND OPEN LAKE BUOY OBSERVATIONS

STATION/POSITION TEMP    WIND        PRES    VSBY  WAVE
                 AIR SEA DIR/SP/G                  HT/PER
                 (F)     (DEG/KT/KT) (MB)    (MI)  (FT/S)
CALUMET HARBOR    18     140/  6/  8 1032.3S
MICHIGAN CITY     18     110/  5/  7   N/A
SAINT JOSEPH      18     150/  2/  7 1034.5S

$$
&&



USA.gov is the U.S. government's official web portal to all federal, state and local government web resources and services.